Preview of NWS' New Version of Forecast
This preview is not operational and should not be used for support decisions.

Regional Weather Roundup (RWR)

Issued by Lake Charles, LA (LCH)

                            
000
ASUS44 KLCH 160810
RWRLCH
REGIONAL WEATHER ROUNDUP
NATIONAL WEATHER SERVICE LAKE CHARLES LA
300 AM CDT TUE OCT 16 2018

Note: "fair" indicates few or no clouds below 12,000 feet with no
significant weather and/or obstructions to visibility.


ACROSS SOUTHEAST TEXAS
  
CITY           SKY/WX    TMP DP  RH WIND       PRES   REMARKS
BEAUMONT       CLOUDY    69  66  90 NE9       30.02R                  
BEAUMONT CITY  NOT AVBL                                               
ORANGE         CLOUDY    67  67 100 NE6       30.05R                  
JASPER         CLOUDY    63  62  94 N6        30.11R                  
$$

ACROSS CENTRAL LOUISIANA
  
CITY           SKY/WX    TMP DP  RH WIND       PRES   REMARKS
LEESVILLE      LGT RAIN  59  58  96 N7        30.06F FOG              
FULLERTON      CLOUDY    59  59 100 VRB6      30.06F FOG              
ALEXANDRIA INT CLOUDY    58  54  86 NE9G18    30.09F                  
ESLER FIELD    CLOUDY    58  55  90 VRB7      30.11F                  
DERIDDER       CLOUDY    62  61  96 NE7       30.09S                  
OAKDALE        CLOUDY    63  58  84 NE6       30.07S                  
OPELOUSAS      CLOUDY    64  59  85 NE9G18    30.05F                  
$$

ACROSS SOUTHWEST AND SOUTH CENTRAL LOUISIANA
  
CITY           SKY/WX    TMP DP  RH WIND       PRES   REMARKS
DEQUINCY       CLOUDY    64  62  91 CALM      30.06R                  
SULPHUR        CLOUDY    69  65  86 NE10      30.04S                  
LAKE CHARLES   CLOUDY    68  65  90 NE9       30.03S                  
CHENNAULT INT  CLOUDY    67  63  89 NE8       30.04F                  
CAMERON PHI    CLOUDY    70  68  94 NE16G24   30.00S                  
GRAND CHENIER  CLOUDY    70  68  94 NE12      30.02S                  
JENNINGS       CLOUDY    65  62  90 NE12      30.05R                  
LAFAYETTE      LGT RAIN  71  69  93 N10       30.04R                  
NEW IBERIA     CLOUDY    75  72  90 NE10      30.02F                  
ABBEVILLE      TSTM      71  71 100 N12G17    30.00F                  
PATTERSON      CLOUDY    74  74 100 E8        30.02F                  
SALT POINT       N/A    N/A N/A N/A VRB5      29.99                   
$$

SELECTED SITES ACROSS THE REGION
  
CITY           SKY/WX    TMP DP  RH WIND       PRES   REMARKS
HOUSTON BUSH   CLOUDY    57  57 100 N10       30.05F FOG              
HOUSTON HOBBY  CLOUDY    59  58  96 N13       30.04F FOG              
GALVESTON      CLOUDY    70  69  97 N17       30.02F                  
COLLEGE STAT   HVY RAIN  49  49 100 N16G22    30.10F FOG              
CONROE         CLOUDY    55  55 100 N6        30.08F                  
HUNTSVILLE     RAIN      50  50 100 MISG      30.10F                  
LUFKIN         HVY RAIN  54  54 100 VRB7      30.11F                  
SHREVEPORT     LGT RAIN  52  51  97 N14       30.17F                  
MONROE         CLOUDY    54  52  93 NE12      30.18F                  
NATCHEZ MS     CLOUDY    59  56  89 N12       30.13S                  
BATON ROUGE    CLOUDY    73  72  96 NE8       30.04F                  
N.O. INTL ARPT CLOUDY    76  75  97 N5        30.04F                  
SLIDELL        LGT RAIN  73  72  96 NE6       30.05S                  
$$

MARINE REPORTS
  
STATION/POSITION TIME  SKY/WX   TEMP    WIND        PRES    VSBY
                                AIR SEA DIR/SP/G
                 (UTC)          (F)     (DEG/KT/KT) (MB)    (MI)
BUOY 30 S HIGH I 0750            77      50/ 19/ 23 1016.0S
WVE H/P(F/S)=  5/ 5

SEA RIM ST PARK  0800            70      40/ 12/ 15 1016.5F
PORT ARTHUR      0736            69 80   40/  7/ 13 1017.0R
SABINE PASS N    0736            71 83   30/ 13/ 17 1018.0R
TEXAS POINT      NOT AVBL
CALCASIEU PASS   0736            70 78   60/ 13/ 17 1015.4R
LK CHARLES BEACH 0736            66 80              1016.7S
MARSH ISLAND     0700            78                   N/A
FRESH WATER LOCK 0736            76 82   40/  6/ 10 1015.3S
AMERADA PASS     0736            76 78              1016.3F
$$